Regional Weather Roundup
Issued by NWS Upton, NY

Current Version | Previous Version | Text Only | Print | Product List | Glossary Off
Versions: 1 2 3 4 5 6 7 8 9 10 11 12 13 14 15 16 17 18 19 20 21 22 23 24 25 26 27 28 29 30 31 32 33 34 35 36 37 38 39 40 41 42 43 44 45 46 47 48 49 50
000 ASUS41 KOKX 061104 RWROKX REGIONAL WEATHER ROUNDUP NATIONAL WEATHER SERVICE NEW YORK NY 600 AM EST SAT FEB 06 2016 NOTE: "FAIR" INDICATES FEW OR NO CLOUDS BELOW 12,000 FEET WITH NO SIGNIFICANT WEATHER AND/OR OBSTRUCTIONS TO VISIBILITY. NYZ071-072-176-178-NJZ106-104-061200- NEW YORK CITY METRO AREA CITY SKY/WX TMP DP RH WIND PRES REMARKS CENTRAL PARK CLEAR 31 16 54 VRB3 30.41R LAGUARDIA APRT PTCLDY 33 18 53 NW6 30.39R WCI 28 KENNEDY INTL PTCLDY 27 16 63 CALM 30.41R NEWARK/LIBERTY CLOUDY 27 18 69 W3 30.40R BRNX BOT. GARD N/A 32 18 55 W6 30.41R WCI 26 TETERBORO CLEAR 27 17 66 CALM 30.39R $$ NYZ177-179-078>081-061200- LONG ISLAND NEW YORK CITY SKY/WX TMP DP RH WIND PRES REMARKS FARMINGDALE CLOUDY 20 16 84 W7 30.40R WCI 11 ISLIP CLOUDY 14 12 92 CALM 30.38R SHIRLEY CLOUDY 17 14 88 CALM 30.40R RIVERHEAD N/A 27 16 63 NW1 30.41R WESTHAMPTON N/A N/A N/A N/A MISG 30.40R EAST HAMPTON FAIR 19 17 93 CALM 30.37R MONTAUK POINT N/A 31 17 56 NW7 30.38R WCI 24 $$ NYZ052-065-067-061200- HUDSON VALLEY CITY SKY/WX TMP DP RH WIND PRES REMARKS WHITE PLAINS CLEAR 22 15 75 CALM 30.36R NEWBURGH CLEAR 21 18 86 CALM 30.35S MONTGOMERY CLEAR 20 16 84 SW6 30.35R WCI 12 POUGHKEEPSIE CLEAR 20 15 81 CALM 30.37R ALBANY CLEAR 25 15 66 S7 30.32S WCI 17 $$ NJZ001-105-106-008-010-013-015-019>022-104-061200- NEW JERSEY CITY SKY/WX TMP DP RH WIND PRES REMARKS NEWARK/LIBERTY CLOUDY 27 18 69 W3 30.40R TETERBORO CLEAR 27 17 66 CALM 30.39R CALDWELL CLOUDY 23 19 85 S3 30.40R MORRISTOWN CLOUDY 19 18 93 CALM 30.39S SOMERVILLE CLOUDY 19 14 81 CALM 30.39R SUSSEX CLOUDY 19 15 84 CALM 30.36R ANDOVER N/A 19 16 88 CALM 30.37R TRENTON CLOUDY 23 18 81 CALM 30.40R MILLVILLE CLOUDY 21 19 92 CALM 30.42S ATLANTIC CITY CLOUDY 21 18 88 CALM 30.43R WRIGHTSTOWN CLOUDY 20 20 99 SE1 30.39R TOMS RIVER CLOUDY 16 12 86 CALM 30.42R BELMAR CLOUDY 21 10 63 CALM 30.40R $$ PAZ047>061-062-071-061200- EASTERN PENNSYLVANIA CITY SKY/WX TMP DP RH WIND PRES REMARKS PHILADELPHIA MOCLDY 30 19 63 W5 30.43R WCI 25 ALLENTOWN CLOUDY 21 15 78 CALM 30.39R SCRANTON CLOUDY 21 15 78 CALM 30.33R $$ CTZ002-004>006-009-010-012-RIZ004-006-007-MAZ004-011-015-061200- SOUTHERN NEW ENGLAND IN CT CITY SKY/WX TMP DP RH WIND PRES REMARKS BRADLEY INTL CLOUDY 17 13 84 W3 30.35R HARTFORD CLOUDY 18 13 80 S3 30.38R DANBURY CLEAR 14 9 80 CALM 30.37R WTRBRY/OXFORD CLOUDY 19 7 58 CALM 30.35R BRIDGEPORT CLOUDY 22 16 78 CALM 30.39R MERIDEN CLOUDY 14 8 77 CALM 30.38R NEW HAVEN CLOUDY 18 13 80 CALM 30.38R CHESTER FAIR 27 18 69 CALM 30.36R GROTON CLOUDY 18 16 92 CALM 30.37R WILLIMANTIC CLOUDY 13 9 84 CALM 30.36R IN RI CITY SKY/WX TMP DP RH WIND PRES REMARKS PROVIDENCE CLOUDY 17 14 88 W3 30.36R BLOCK ISLAND CLEAR 27 19 74 NW3 30.35R WESTERLY CLOUDY 19 15 84 W3 30.37R IN MA CITY SKY/WX TMP DP RH WIND PRES REMARKS BOSTON NOT AVBL WORCESTER CLOUDY 20 11 68 W13 30.28R WCI 7 WESTFIELD CLOUDY 14 10 84 CALM 30.35R PROVINCETOWN CLEAR 27 20 75 NW15 30.33R WCI 15 NANTUCKET CLEAR 29 21 72 NW12 30.33R WCI 19 $$ ANZ330-335-338-340-345-350-353-355-061200- COASTAL MARINE OBSERVATIONS STATION/POSITION TIME SKY/WX TEMP WIND PRES VSBY WAVE AIR SEA DIR/SP/G HT/PER (UTC) (F) (DEG/KT/KT) (MB) (MI) (FT/S) NY HARB ENTRANCE 0950 35 44 320/ 8/ 10 1028.5 2/11 4S FIRE IS NOT AVBL 20S FIRE ISLAND 0950 35 45 340/ 8/ 10 1028.5 3/10 GREAT SOUTH BAY NOT AVBL 23SW MTP 1050 33 46 330/ 12/ 16 1028.2 4/11 HUDSON CANYON 0950 39 51 1027.9 5/ 6 KINGS POINT 1000 38 340/ 6/ 7 1028.4 EXECUTION ROCKS NOT AVBL CENTRAL LI SOUND 1000 32 330/ 8/ 12 N/A 1 EASTERN LI SOUND 1000 30 42 320/ 8/ 12 N/A ROBBINS REEF 1000 31 290/ 5/ 6 1028.4 $$ >>>>>>>>>>>>>>>>>>>>>>>>>>>> KEY <<<<<<<<<<<<<<<<<<<<<<<<<<< > < > SKY/WX - SKY CONDITION/PRESENT WEATHER < > TMP - TEMPERATURE IN FAHRENHEIT < > DP - DEWPOINT IN FAHRENHEIT < > RH - RELATIVE HUMIDITY IN PERCENT < > WIND - DIRECTION AND SPEED IN MPH < > PRES - MEAN SEA LEVEL PRESSURE IN INCHES OF HG < > WCI - WIND CHILL INDEX < > VSB - VISIBILITY IN MILES < > HX - HEAT INDEX < > TC - TEMPERATURE IN CELSIUS < > VRB - VARIABLE WIND DIRECTION < > < >>>>>>>>>>>>>>>>>>>>>>>>>>>> KEY <<<<<<<<<<<<<<<<<<<<<<<<<<<

USA.gov is the U.S. government's official web portal to all federal, state and local government web resources and services.